User: anonymous   Login
Location: ?????
(32.7281°N, 34.9563°E)
Time: 06:20:43
(UTC+00:00)
Language:

SL-16 R/B - Orbit

View from above orbital plane
View from above orbital plane
View from above satellite
View from above satellite

Ground track
Ground track

The orbit data is extracted from the following two-line orbital elements,

1 31793U 07029B   21015.63938572  .00000168  00000-0  11266-3 0  9997
2 31793  70.9760 160.6336 0002556 277.5317  93.5805 14.14443402699662
Epoch (UTC): 15 January 2021 15:20:42
Eccentricity: 0.0002556
inclination: 70.9760°
perigee height: 842 km
apogee height: 846 km
right ascension of ascending node: 160.6336°
argument of perigee: 277.5317°
revolutions per day: 14.14443402
mean anomaly at epoch: 93.5805°
orbit number at epoch: 69966

The dashed part of the orbit path shows where the satellite is in the earth's shadow,  

DLR